Weather History for Findlay, OH

Change the Weather History Date:

Friday, April 26, 2013

  Actual Average Record
Temperature  
Mean Temperature 46 °F -  
Max Temperature 60 °F 64 °F 83 °F (1954)
Min Temperature 32 °F 42 °F 28 °F (2006)
Degree Days  
Heating Degree Days 20    
Moisture  
Dew Point 32 °F    
Average Humidity 60    
Maximum Humidity 89    
Minimum Humidity 35    
Precipitation  
Precipitation 0.00 in - - ()
Sea Level Pressure  
Sea Level Pressure 30.40 in    
Wind  
Wind Speed 4 mph (South)    
Max Wind Speed 10 mph    
Max Gust Speed 16 mph    
Visibility 10 miles    
Events      
Averages and records for this station are not official NWS values.
T = Trace of Precipitation, MM = Missing Value Source: NWS Daily Summary

Daily Weather History Graph

Daily Weather History Graph

Search for Another Location

Airport:

Trip Planner

Search our weather history database for the weather conditions in past years. The results will help you decide how hot, cold, wet, or windy it might be!

Date:

Astronomy

Apr. 26, 2013 Rise Set
Actual Time 6:39 AM EDT 8:26 PM EDT
Civil Twilight 6:09 AM EDT 8:55 PM EDT
Nautical Twilight 5:33 AM EDT 9:31 PM EDT
Astronomical Twilight 4:55 AM EDT 10:10 PM EDT
Moon 9:48 PM EDT (4/26) 7:05 AM EDT (4/26)
Length of Visible Light 14h 46m
Length of Day
13h 47m
Full, 99% of the Moon is Illuminated
Apr 26
Full
May 2
Last Quarter
May 9
New
May 18
First Quarter
May 25
Full

Hourly Weather History & Observations

Time (EDT) Temp. Windchill Dew Point Humidity Pressure Visibility Wind Dir Wind Speed Gust Speed Precip Events Conditions
12:53 AM 37.0 °F 34.5 °F 32.0 °F 82% 30.38 in 10.0 mi SW 3.5 mph - N/A   Clear
1:53 AM 36.0 °F - 30.9 °F 82% 30.39 in 10.0 mi Calm Calm - N/A   Clear
3:53 AM 33.1 °F - 28.9 °F 85% 30.38 in 10.0 mi Calm Calm - N/A   Clear
4:53 AM 33.1 °F 30.0 °F 30.0 °F 89% 30.40 in 10.0 mi South 3.5 mph - N/A   Clear
5:53 AM 33.1 °F - 30.0 °F 89% 30.41 in 9.0 mi Calm Calm - N/A   Clear
6:53 AM 32.0 °F - 28.9 °F 88% 30.43 in 6.0 mi Calm Calm - N/A   Clear
7:53 AM 35.1 °F - 32.0 °F 89% 30.45 in 6.0 mi Calm Calm - N/A   Clear
8:53 AM 43.0 °F 40.3 °F 34.0 °F 71% 30.45 in 10.0 mi SE 4.6 mph - N/A   Clear
9:53 AM 48.0 °F - 33.1 °F 56% 30.45 in 10.0 mi SSE 9.2 mph - N/A   Clear
10:53 AM 50.0 °F - 30.9 °F 48% 30.45 in 10.0 mi SSE 9.2 mph - N/A   Clear
11:53 AM 51.1 °F - 30.9 °F 46% 30.46 in 10.0 mi South 8.1 mph - N/A   Clear
12:53 PM 53.1 °F - 32.0 °F 45% 30.45 in 10.0 mi Variable 5.8 mph 16.1 mph N/A   Clear
1:53 PM 55.9 °F - 34.0 °F 44% 30.44 in 10.0 mi South 10.4 mph - N/A   Clear
2:53 PM 57.0 °F - 32.0 °F 39% 30.42 in 10.0 mi South 10.4 mph - N/A   Clear
3:53 PM 59.0 °F - 34.0 °F 39% 30.39 in 10.0 mi SSE 10.4 mph 16.1 mph N/A   Clear
4:53 PM 57.9 °F - 30.0 °F 35% 30.37 in 10.0 mi Variable 4.6 mph - N/A   Clear
5:53 PM 59.0 °F - 32.0 °F 36% 30.36 in 10.0 mi SSE 6.9 mph - N/A   Clear
6:53 PM 59.0 °F - 34.0 °F 39% 30.36 in 10.0 mi South 10.4 mph - N/A   Clear
7:53 PM 55.0 °F - 37.0 °F 51% 30.36 in 10.0 mi South 6.9 mph - N/A   Clear
8:53 PM 54.0 °F - 34.0 °F 47% 30.35 in 10.0 mi SSE 3.5 mph - N/A   Clear
9:53 PM 51.1 °F - 35.1 °F 54% 30.37 in 10.0 mi SSE 4.6 mph - N/A   Clear
10:53 PM 48.9 °F - 35.1 °F 59% 30.37 in 10.0 mi South 5.8 mph - N/A   Clear
11:53 PM 46.9 °F - 35.1 °F 63% 30.35 in 10.0 mi SSE 5.8 mph - N/A   Clear